Theta_e
309 310 310 310 310 309 309 310 311 312 312 312 311 310 309 308 307 309 318 316 315 314 315 315 315 316 317 317 318 316 314 315 317 315 314 314 315 314 315 315 314 315 314 314 317
310 310 310 310 310 310 310 313 314 315 315 315 315 314 311 308 309 315 315 316 314 312 315 315 315 315 313 317 317 315 315 316 315 314 314 313 313 311 313 310 311 312 312 315 317
311 311 311 311 311 311 313 315 316 316 317 317 317 316 314 308 317 317 314 313 313 311 316 316 316 315 315 315 317 317 316 316 316 316 315 315 313 311 312 312 311 312 312 312 314
312 312 313 314 314 314 315 317 318 318 318 318 317 316 314 311 311 314 313 311 311 312 315 315 314 315 315 315 314 316 315 316 316 315 315 315 315 314 313 313 311 310 311 312 310
313 313 313 315 316 317 317 319 319 320 320 319 317 315 312 316 313 317 312 313 311 313 314 314 313 314 315 314 313 314 314 315 313 313 312 313 313 313 313 312 310 310 310 309 309
313 313 314 316 317 318 319 320 320 321 320 319 316 312 313 314 314 315 313 312 312 313 314 313 313 312 313 314 313 312 313 312 312 312 312 313 312 314 312 310 310 310 309 308 308
315 314 315 316 318 320 320 320 321 321 321 319 313 311 316 314 314 315 312 314 314 313 313 314 314 313 313 313 313 313 313 311 311 311 312 311 313 313 311 310 311 310 308 309 309
315 315 315 317 319 320 320 321 322 322 320 315 310 314 313 312 313 313 314 313 314 314 314 313 313 313 313 312 312 313 312 312 312 313 312 311 312 311 310 311 312 310 308 308 307
315 315 316 318 319 320 321 322 322 321 316 313 315 317 314 309 311 312 312 312 313 312 312 312 313 312 313 312 311 311 311 312 313 313 312 311 311 311 310 310 310 309 309 307 307
315 316 317 319 320 321 322 322 320 315 316 316 316 312 311 312 311 311 310 312 311 311 311 311 310 310 309 310 313 312 311 311 313 314 313 312 310 310 310 311 309 307 308 307 306
316 317 318 319 320 322 321 319 317 316 314 317 316 312 311 311 310 310 310 311 311 312 311 311 309 311 310 309 310 310 312 312 312 313 313 313 312 311 311 310 309 309 307 306 304
317 317 318 319 320 321 321 318 313 314 318 316 317 314 314 312 314 310 310 310 311 312 311 311 311 311 310 312 313 312 313 313 312 313 314 312 311 312 312 311 310 306 305 305 304
317 318 318 319 320 320 319 315 312 311 315 318 316 317 314 314 316 313 309 310 311 312 312 312 313 312 314 315 315 314 314 313 314 313 311 312 312 312 311 307 306 305 304 303 302
318 318 319 319 320 322 316 315 313 311 319 321 317 311 309 311 314 308 309 311 314 314 313 314 314 315 314 315 314 315 313 313 313 311 315 312 315 312 311 307 305 304 302 301 300
320 320 320 320 322 321 316 316 314 312 332 316 312 309 308 311 310 309 307 310 314 314 313 317 313 312 313 314 312 314 311 311 311 311 312 312 313 312 308 308 306 303 302 301 300
321 321 321 320 320 320 317 319 314 324 329 312 310 312 311 309 309 308 308 308 308 311 311 311 308 309 310 310 311 309 311 311 310 310 315 314 313 313 310 309 306 304 302 302 300
322 322 321 320 320 319 317 318 326 329 321 315 312 312 312 313 310 310 310 309 311 314 314 313 311 310 309 310 309 309 310 315 317 315 318 314 314 313 309 307 306 304 302 300 298
321 320 319 320 320 316 318 320 325 323 324 321 319 318 320 319 319 316 314 313 310 312 314 315 315 310 309 310 312 310 313 318 316 319 317 313 315 315 307 305 303 301 299 297 295
317 318 318 319 318 317 317 320 322 323 322 322 321 321 320 319 319 319 314 314 313 312 316 313 312 310 309 310 312 314 314 313 315 301 309 312 313 310 307 304 302 300 298 296 294
313 314 313 318 317 317 318 319 318 318 321 322 323 320 321 320 320 319 315 313 313 310 310 313 316 312 310 310 308 312 310 314 311 310 308 312 311 309 309 305 302 300 297 295 294
310 313 310 315 315 316 320 320 319 317 318 321 320 320 316 319 317 316 313 315 312 311 310 312 312 312 311 311 312 310 310 310 311 312 313 311 310 308 308 303 301 300 299 295 294
308 311 309 313 317 317 316 315 316 315 314 317 317 318 318 317 316 313 313 314 311 311 313 312 316 315 314 310 308 308 309 309 312 314 313 315 315 305 302 300 300 299 298 295 294
307 307 309 312 319 318 314 312 315 314 314 315 317 316 314 314 315 312 312 308 309 311 312 311 312 301 301 307 309 310 310 310 310 310 310 313 311 303 302 301 299 298 296 291 290
305 307 308 309 312 313 316 313 312 310 310 310 310 310 310 310 309 309 311 308 304 307 308 308 307 303 305 305 308 307 308 306 307 306 305 306 305 304 301 299 295 293 290 289 289
303 306 305 308 311 312 310 311 313 311 309 308 308 308 310 309 307 307 307 304 302 305 302 306 305 306 305 307 304 304 304 302 302 301 299 299 297 297 297 297 290 288 288 288 288
302 301 301 303 306 310 310 309 308 309 309 309 309 306 307 306 305 304 304 304 305 301 301 299 298 298 295 300 300 300 299 298 299 299 298 298 299 297 291 287 287 288 288 288 287
296 296 298 301 303 308 309 308 306 305 302 304 307 304 304 302 300 298 297 297 299 300 300 298 295 291 291 295 292 290 294 295 295 295 297 297 296 289 291 289 288 288 288 287 287
Wind_Speed
3 4 5 5 5 6 6 7 9 10 11 11 12 13 13 15 16 12 5 4 3 4 4 6 3 2 1 1 1 3 4 2 4 6 6 5 5 5 2 2 1 3 5 5 11
5 5 5 6 7 7 7 8 10 10 11 13 13 13 13 15 16 9 7 7 7 5 9 8 4 5 2 2 1 4 3 6 3 1 3 3 2 4 4 8 5 5 5 2 13
5 6 6 6 7 7 7 9 11 12 13 13 13 12 11 12 5 2 1 3 5 8 6 7 5 5 3 1 4 5 5 4 6 4 1 4 8 6 5 8 6 8 6 3 13
6 6 6 6 7 7 7 9 11 12 13 14 13 11 8 4 4 0 1 2 5 11 3 1 1 2 3 4 5 3 8 7 5 3 4 5 2 7 6 15 8 10 9 5 8
6 6 7 7 8 7 8 10 11 13 13 13 12 9 4 1 7 4 2 3 7 11 4 2 3 3 3 3 4 5 4 3 7 9 7 5 5 7 10 17 12 11 10 10 8
8 7 7 7 8 8 9 10 12 14 14 13 11 5 1 3 2 5 2 3 4 7 3 5 3 4 4 4 2 4 4 6 7 12 6 7 4 0 9 6 10 8 8 8 8
8 8 7 8 9 9 10 11 13 14 14 12 8 1 1 10 4 3 1 1 5 4 2 3 3 3 2 4 2 3 5 8 10 7 7 7 5 8 12 6 10 7 7 9 10
9 8 8 8 9 10 11 12 15 15 12 7 2 2 6 5 3 3 3 1 4 5 2 2 4 3 2 2 6 4 1 4 6 3 3 3 8 8 10 5 14 8 8 8 13
10 9 8 9 9 11 12 14 16 14 6 2 1 2 7 2 3 3 5 3 5 3 2 2 3 4 1 3 4 2 4 5 7 2 3 3 6 10 9 6 11 6 7 11 12
10 9 9 8 8 10 14 16 11 5 0 1 1 1 3 3 3 3 5 8 3 4 3 2 3 2 3 3 5 6 3 4 3 5 1 5 10 9 12 11 8 7 6 13 14
12 10 9 8 8 9 14 5 3 1 3 7 4 4 4 5 5 2 3 5 3 1 4 3 3 7 12 10 6 3 4 5 5 8 6 9 7 9 15 10 6 8 17 12 15
14 12 10 8 8 8 9 2 2 2 6 11 13 7 4 6 2 4 8 5 5 6 4 1 6 11 6 5 6 7 6 6 5 5 3 8 9 16 16 6 1 17 12 11 11
16 14 11 9 9 10 4 3 3 2 2 6 2 2 4 5 3 3 8 4 5 5 6 7 6 7 7 4 7 4 4 4 6 4 5 5 6 7 7 15 18 15 15 14 13
19 16 12 8 7 6 4 7 5 3 3 4 3 1 2 2 1 1 2 2 3 6 6 7 7 9 5 5 7 4 7 5 4 2 3 3 4 8 3 13 12 11 12 12 12
22 19 15 15 2 4 6 9 4 1 5 2 3 1 2 4 6 2 1 2 3 1 3 6 3 2 3 5 6 6 2 3 2 2 2 5 2 7 8 6 6 7 10 11 11
24 22 19 18 19 6 11 11 4 3 9 3 4 4 4 2 2 3 2 1 2 1 3 6 2 3 6 1 2 4 2 3 2 3 1 6 6 5 3 8 7 7 10 10 9
24 25 27 19 5 16 13 6 3 5 2 3 4 5 4 3 3 4 4 3 4 2 0 3 4 2 3 2 3 4 5 3 3 1 5 3 2 6 6 7 15 14 12 10 8
12 14 23 16 16 21 10 2 6 5 3 1 4 4 4 2 0 4 4 4 6 3 2 3 5 7 4 6 6 6 6 4 5 3 5 7 4 3 10 16 15 13 11 8 8
14 15 11 15 22 23 3 3 6 5 6 7 4 1 3 4 3 1 6 6 7 11 7 4 5 1 4 2 5 4 4 2 2 2 3 4 2 6 10 11 10 10 9 7 7
7 7 5 16 31 16 3 7 5 4 6 8 11 11 10 8 7 7 6 5 6 2 2 2 2 4 2 3 5 1 2 1 2 1 3 3 3 4 8 9 8 7 7 6 6
6 1 3 14 23 2 3 7 5 2 3 8 8 8 9 10 10 6 5 1 3 2 4 3 4 4 4 5 3 2 0 2 3 4 4 2 5 1 12 9 8 7 7 7 6
4 1 5 15 4 2 4 5 4 3 1 3 1 4 2 3 9 9 8 3 2 6 7 0 3 4 8 4 1 5 4 5 3 4 3 0 9 8 12 10 7 7 7 7 6
0 2 6 5 5 6 3 3 5 5 5 5 6 4 3 4 2 5 5 3 6 2 7 5 3 2 8 5 3 5 2 5 4 2 6 4 10 7 11 6 2 5 6 6 5
0 2 2 2 2 2 6 6 7 5 3 5 4 5 4 5 2 5 3 2 4 2 3 3 2 6 8 3 2 3 5 5 5 2 2 11 11 23 14 4 5 5 5 5 3
2 4 3 5 10 8 1 3 11 8 6 8 5 9 8 7 4 6 5 4 4 2 3 3 5 4 3 4 3 5 12 4 6 13 7 21 16 18 10 1 7 7 5 5 4
3 3 2 3 4 14 13 4 7 7 9 6 6 3 8 7 7 6 6 4 4 1 2 4 2 3 4 2 5 11 15 10 14 18 14 16 22 6 2 7 6 5 3 3 5
3 1 1 3 3 7 11 15 6 6 1 2 10 6 4 3 5 5 5 6 6 7 4 5 4 3 5 3 4 9 12 15 9 5 5 8 11 2 5 6 5 2 3 5 3
Wind_Direction
348 345 343 342 345 344 347 352 349 345 340 335 331 328 325 322 317 306 254 243 216 243 184 143 155 201 292 279 76 58 58 264 261 8 307 1 15 1 331 239 239 224 209 243 168
330 329 326 328 332 335 342 346 345 341 337 331 328 326 328 326 320 267 258 235 245 237 170 166 182 183 2 240 173 103 132 232 164 166 310 284 84 296 6 308 287 290 289 267 181
315 316 321 325 327 331 338 340 341 336 335 331 329 325 328 331 329 268 304 236 210 182 157 220 266 168 178 181 212 189 200 224 296 340 352 316 331 339 350 282 232 260 269 226 206
310 316 319 325 325 328 328 330 334 335 333 330 329 325 323 336 298 308 131 147 168 172 199 195 169 159 210 226 225 211 229 233 267 320 314 298 295 307 238 256 260 272 266 275 279
295 300 308 315 321 322 322 326 327 331 330 329 328 328 318 5 253 279 264 199 181 178 210 205 190 186 243 256 354 213 240 312 317 294 264 281 252 252 261 265 277 281 292 291 278
287 291 297 303 310 313 314 318 321 325 325 324 326 323 142 242 259 295 295 186 176 188 217 213 206 183 254 248 190 299 330 289 279 267 260 249 264 13 274 310 308 307 308 325 309
277 282 287 294 304 308 310 314 317 317 319 320 326 210 186 240 233 280 199 177 181 208 238 294 264 121 38 317 282 324 328 310 261 268 225 164 307 230 256 299 300 301 326 325 318
268 271 278 287 298 306 310 314 313 310 308 326 357 143 244 199 205 232 191 179 217 211 239 357 80 93 175 304 3 312 348 301 285 155 306 80 261 264 266 318 297 329 324 315 59
261 265 271 285 298 307 312 313 302 297 290 291 203 180 268 134 164 185 194 176 129 124 114 76 82 178 24 93 1 276 233 213 307 346 122 178 250 265 284 280 279 314 298 72 65
251 255 265 278 295 311 317 313 295 299 182 177 264 314 239 200 169 166 169 151 130 121 62 94 64 113 36 110 224 226 216 276 253 271 276 228 247 271 287 275 253 293 33 83 70
249 248 256 271 290 313 328 331 352 28 204 202 190 244 155 135 153 197 140 140 117 107 178 217 130 202 213 206 219 266 270 259 266 281 299 280 288 285 264 287 314 316 113 90 71
244 245 247 260 282 298 307 290 192 173 299 251 250 234 165 160 162 192 167 153 159 197 164 71 222 229 229 234 232 227 244 264 277 280 326 287 297 277 288 280 93 112 78 76 75
238 238 241 256 279 284 211 205 176 155 212 289 241 134 149 144 207 169 166 184 184 199 210 190 224 195 190 260 291 279 240 238 254 297 279 304 301 291 52 76 78 74 85 73 69
232 231 233 240 273 197 185 185 183 170 295 245 196 353 72 115 156 317 39 193 250 208 224 251 246 236 257 253 201 254 248 222 245 82 236 60 277 290 55 84 72 79 78 82 74
230 225 222 211 240 195 172 178 167 146 277 140 130 112 113 138 145 341 314 80 194 218 121 252 198 154 181 220 151 228 100 166 195 194 46 287 109 268 119 87 98 87 84 77 76
227 226 219 219 230 202 154 151 145 123 234 133 126 156 125 165 127 144 126 10 145 196 218 241 243 217 209 42 133 146 34 311 95 118 72 267 168 287 162 172 125 100 91 84 75
229 234 215 205 197 189 160 121 152 216 339 170 153 165 181 146 167 181 165 174 161 110 93 308 235 201 141 95 36 85 75 315 351 18 222 189 56 246 10 86 125 120 101 91 84
203 212 198 191 163 159 145 121 202 169 203 14 97 83 121 158 222 212 170 212 231 159 164 219 314 168 183 184 185 171 173 170 222 212 230 10 253 323 104 95 99 98 104 95 80
163 169 170 184 171 164 122 192 190 192 156 162 37 62 230 177 162 189 214 210 211 179 179 207 252 194 161 182 153 177 173 190 169 51 60 209 266 105 109 104 110 107 98 100 99
154 153 193 188 175 174 179 207 214 218 151 171 185 179 194 180 171 173 220 201 172 126 141 171 283 291 140 35 4 107 152 47 14 296 257 262 238 216 163 142 125 116 121 125 125
76 152 194 179 180 192 209 191 202 226 174 187 207 191 206 176 182 194 212 33 77 77 102 125 131 261 117 195 141 38 200 194 167 167 196 254 249 196 143 149 142 168 175 160 143
105 290 199 168 195 183 178 194 163 166 269 119 151 191 251 151 180 195 204 127 100 152 146 300 140 215 231 261 141 181 213 171 170 238 242 229 252 152 144 153 165 193 168 159 154
301 200 194 226 221 210 152 138 191 169 182 172 180 224 187 196 246 224 151 1 16 94 156 174 182 348 337 10 32 75 99 105 93 80 218 220 252 120 129 146 117 173 161 129 130
298 231 222 203 212 236 203 188 184 212 200 161 186 167 168 202 228 201 124 22 29 78 69 75 140 175 224 163 128 281 174 114 123 186 236 251 290 284 304 354 142 99 83 112 81
204 233 217 207 212 202 171 234 206 186 205 179 203 200 176 198 200 194 130 145 35 117 49 124 190 205 259 124 162 221 258 174 210 241 207 272 272 277 294 211 151 134 101 61 355
171 182 300 298 178 189 210 224 207 192 173 203 193 174 188 190 182 181 143 151 173 131 106 355 210 83 306 264 227 265 265 253 239 249 247 256 266 276 132 96 109 105 84 312 298
191 248 159 235 196 180 209 210 211 158 342 350 187 133 118 113 111 103 93 86 139 143 144 137 123 87 267 28 41 298 248 233 238 205 181 223 244 212 198 147 144 123 317 290 244